TimeCDT,TemperatureF,Dew PointF,Humidity,Sea Level PressureIn,VisibilityMPH,Wind Direction,Wind SpeedMPH,Gust SpeedMPH,PrecipitationIn,Events,Conditions,WindDirDegrees,DateUTC
12:21 AM,46.4,44.6,93,30.21,2.0,Calm,Calm,-,0.07,Rain,Heavy Rain,0,2012-10-08 05:21:00
12:34 AM,46.4,44.6,93,30.20,3.0,Calm,Calm,-,0.10,Rain,Heavy Rain,0,2012-10-08 05:34:00
12:53 AM,46.9,44.1,90,30.23,6.0,Calm,Calm,-,0.16,Rain,Light Rain,0,2012-10-08 05:53:00
1:01 AM,46.4,44.6,93,30.23,6.0,Calm,Calm,-,0.02,Rain,Rain,0,2012-10-08 06:01:00
1:40 AM,46.4,44.6,93,30.24,7.0,Calm,Calm,-,0.10,Rain,Light Rain,0,2012-10-08 06:40:00
1:53 AM,46.9,45.0,93,30.23,7.0,Variable,3.5,-,0.13,Rain,Light Rain,0,2012-10-08 06:53:00
2:53 AM,46.9,44.1,90,30.22,10.0,Calm,Calm,-,0.08,,Overcast,0,2012-10-08 07:53:00
3:53 AM,46.9,45.0,93,30.21,10.0,Calm,Calm,-,0.03,,Overcast,0,2012-10-08 08:53:00
4:11 AM,46.4,44.6,93,30.21,10.0,Calm,Calm,-,N/A,,Overcast,0,2012-10-08 09:11:00
4:53 AM,46.9,45.0,93,30.21,10.0,Calm,Calm,-,N/A,,Overcast,0,2012-10-08 09:53:00
5:53 AM,46.9,45.0,93,30.22,10.0,Calm,Calm,-,N/A,,Overcast,0,2012-10-08 10:53:00
6:53 AM,48.0,45.0,89,30.23,10.0,Calm,Calm,-,N/A,,Overcast,0,2012-10-08 11:53:00
7:53 AM,48.0,46.0,93,30.25,10.0,Calm,Calm,-,N/A,,Overcast,0,2012-10-08 12:53:00
8:53 AM,50.0,46.9,89,30.26,10.0,Calm,Calm,-,N/A,,Overcast,0,2012-10-08 13:53:00
9:08 AM,50.0,46.4,87,30.27,10.0,Variable,3.5,-,N/A,,Overcast,0,2012-10-08 14:08:00
9:53 AM,52.0,46.0,80,30.27,10.0,NE,5.8,-,N/A,,Mostly Cloudy,40,2012-10-08 14:53:00
10:02 AM,51.8,44.6,76,30.27,10.0,NE,9.2,-,N/A,,Scattered Clouds,50,2012-10-08 15:02:00
10:09 AM,51.8,42.8,71,30.27,10.0,Variable,6.9,-,N/A,,Mostly Cloudy,0,2012-10-08 15:09:00
10:18 AM,53.6,44.6,72,30.27,10.0,NE,4.6,-,N/A,,Scattered Clouds,40,2012-10-08 15:18:00
10:28 AM,53.6,42.8,67,30.27,10.0,North,5.8,-,N/A,,Mostly Cloudy,10,2012-10-08 15:28:00
10:53 AM,55.9,44.1,64,30.27,10.0,NE,8.1,-,N/A,,Overcast,50,2012-10-08 15:53:00
11:30 AM,55.4,42.8,63,30.26,10.0,ENE,5.8,-,N/A,,Scattered Clouds,60,2012-10-08 16:30:00
11:53 AM,57.0,42.1,57,30.26,10.0,ENE,4.6,-,N/A,,Clear,60,2012-10-08 16:53:00
12:53 PM,59.0,42.1,53,30.23,10.0,NNE,4.6,-,N/A,,Partly Cloudy,20,2012-10-08 17:53:00
1:53 PM,59.0,42.1,53,30.20,10.0,NW,6.9,-,N/A,,Mostly Cloudy,310,2012-10-08 18:53:00
2:53 PM,60.1,42.1,51,30.18,10.0,NNE,5.8,-,N/A,,Overcast,30,2012-10-08 19:53:00
3:53 PM,59.0,42.1,53,30.17,10.0,Calm,Calm,-,N/A,,Overcast,0,2012-10-08 20:53:00
4:53 PM,59.0,44.1,58,30.16,10.0,Calm,Calm,-,N/A,,Overcast,0,2012-10-08 21:53:00
5:53 PM,57.0,46.0,67,30.16,10.0,Calm,Calm,-,N/A,,Overcast,0,2012-10-08 22:53:00
6:53 PM,57.0,43.0,59,30.16,10.0,Calm,Calm,-,N/A,,Overcast,0,2012-10-08 23:53:00
7:53 PM,53.1,44.1,71,30.16,10.0,Calm,Calm,-,N/A,,Overcast,0,2012-10-09 00:53:00
8:53 PM,48.9,46.0,90,30.16,10.0,Calm,Calm,-,N/A,,Clear,0,2012-10-09 01:53:00
9:53 PM,46.9,44.1,90,30.16,10.0,Calm,Calm,-,N/A,,Clear,0,2012-10-09 02:53:00
10:53 PM,46.0,43.0,89,30.16,10.0,Calm,Calm,-,N/A,,Clear,0,2012-10-09 03:53:00